User: anonymous   Login
Location: Cheching
(60.0667°N, 164.2167°W)
Time: 01:09:10
(UTC+00:00)
Language:

Gurwin Techsat 1B - Orbit

View from above orbital plane
View from above orbital plane
View from above satellite
View from above satellite

Ground track
Ground track

The orbit data is extracted from the following two-line orbital elements,

1 25397U 98043D   21023.56097699 -.00000012  00000-0  14291-4 0  9994
2 25397  98.7551 329.6437 0002091 117.6747 242.4644 14.23699768170876
Epoch (UTC): 23 January 2021 13:27:48
Eccentricity: 0.0002091
inclination: 98.7551°
perigee height: 811 km
apogee height: 814 km
right ascension of ascending node: 329.6437°
argument of perigee: 117.6747°
revolutions per day: 14.23699768
mean anomaly at epoch: 242.4644°
orbit number at epoch: 17087

The dashed part of the orbit path shows where the satellite is in the earth's shadow,  

DLR